Waarnemingen

Advertentie
Mijn weer
Brüssel, België (6451): temperatuur & dauwpunt: 10.12.2017 12:00:00 - 16.12.2017 12:00:00 (CET)Brüssel, België (6451): windsnelheid & windstoten: 10.12.2017 12:00:00 - 16.12.2017 12:00:00 (CET)Brüssel, België (6451): windrichting: 10.12.2017 12:00:00 - 16.12.2017 12:00:00 (CET)Brüssel, België (6451): luchtdruk: 10.12.2017 12:00:00 - 16.12.2017 12:00:00 (CET)Brüssel, België (6451): zicht: 10.12.2017 12:00:00 - 16.12.2017 12:00:00 (CET)
Datum & Tijd tt [°C] td [°C] ff [km/u] ff [kn] fx [km/u] fx [kn] dd ppp [hPa] vv [km]
16.12.2017 12:00:00 3,8 1,9 18 10 25 14 W 1014,2 10
16.12.2017 11:00:00 3,5 1,7 13 7 29 16 WNW 1013,5 10
16.12.2017 10:00:00 2,9 1,7 11 6 - - W 1012,7 6
16.12.2017 09:00:00 2,9 1,6 11 6 18 10 W 1011,6 8
16.12.2017 08:00:00 2,2 1,0 9 5 14 8 W 1010,4 10
16.12.2017 07:00:00 2,6 1,0 8 4 - - WNW 1009,5 10
16.12.2017 06:00:00 2,4 1,2 9 5 18 10 W 1008,6 10
16.12.2017 05:00:00 2,7 1,8 11 6 18 10 W 1008,0 4,8
16.12.2017 04:00:00 2,8 2,1 9 5 - - W 1007,2 4,8
16.12.2017 03:00:00 2,3 1,2 9 5 11 6 WNW 1006,6 4,8
16.12.2017 02:00:00 1,3 0,2 8 4 14 8 WNW 1005,5 6
16.12.2017 01:00:00 3,3 2,3 7 4 - - NW 1004,9 6
16.12.2017 00:00:00 3,3 2,4 5 3 11 6 NW 1004,1 8
15.12.2017 23:00:00 3,3 2,0 4 2 11 6 WNW 1003,0 8
15.12.2017 22:00:00 3,4 2,4 7 4 - - NW 1002,4 10
15.12.2017 21:00:00 3,1 2,1 2 1 11 6 NNW 1001,3 10
15.12.2017 20:00:00 1,6 -0,5 2 1 7 4 - 1000,2 10
15.12.2017 19:00:00 3,2 1,9 4 2 - - W 998,8 20
15.12.2017 18:00:00 3,4 2,3 4 2 7 4 ZZW 998,0 20
15.12.2017 17:00:00 4,1 2,4 5 3 7 4 ZZW 997,2 10
15.12.2017 16:00:00 4,1 2,1 4 2 - - ZZW 996,5 15
15.12.2017 15:00:00 4,3 2,1 11 6 18 10 ZW 995,9 15
15.12.2017 14:00:00 4,4 2,3 15 8 22 12 ZW 995,6 10
15.12.2017 13:00:00 4,7 2,3 13 7 - - ZZW 995,3 10
15.12.2017 12:00:00 3,5 1,9 15 8 22 12 ZZW 995,2 10
15.12.2017 11:00:00 3,3 1,6 11 6 25 14 ZW 994,9 15
15.12.2017 10:00:00 2,7 1,3 15 8 - - ZW 993,8 10
15.12.2017 09:00:00 2,8 1,3 18 10 29 16 ZW 993,3 15
15.12.2017 08:00:00 3,0 1,4 18 10 29 16 ZW 993,2 10
15.12.2017 07:00:00 3,1 1,7 15 8 - - ZZW 992,6 10
15.12.2017 06:00:00 2,9 1,6 11 6 29 16 ZZW 992,5 20
15.12.2017 05:00:00 2,9 1,5 18 10 36 19 ZW 992,4 10
15.12.2017 04:00:00 2,5 1,1 22 12 - - ZW 992,0 10
15.12.2017 03:00:00 1,9 0,3 16 9 36 19 ZW 991,7 10
15.12.2017 02:00:00 2,1 0,6 24 13 36 19 ZW 991,3 10
15.12.2017 01:00:00 1,6 0,2 14 8 - - ZW 990,9 35
15.12.2017 00:00:00 2,1 0,6 18 10 36 19 WZW 991,0 50
14.12.2017 23:00:00 2,4 0,7 24 13 36 19 WZW 990,6 10
14.12.2017 22:00:00 2,3 0,6 22 12 - - ZW 990,6 50
14.12.2017 21:00:00 1,9 0,2 18 10 29 16 ZW 990,9 10
14.12.2017 20:00:00 2,3 0,7 14 8 29 16 ZW 990,9 50
14.12.2017 19:00:00 2,7 1,1 21 11 - - ZW 991,1 10
14.12.2017 18:00:00 3,4 1,6 25 14 43 23 ZW 991,7 15
14.12.2017 17:00:00 3,1 1,7 14 8 43 23 ZZW 992,4 15
14.12.2017 16:00:00 3,6 1,3 25 14 - - ZW 992,8 35
14.12.2017 15:00:00 4,0 1,6 29 16 58 31 ZW 993,4 35
14.12.2017 14:00:00 4,0 1,4 29 16 50 27 ZW 994,0 30
14.12.2017 13:00:00 3,8 1,5 32 18 - - ZW 994,7 30
14.12.2017 12:00:00 3,8 1,5 28 15 54 29 ZW 995,2 10
14.12.2017 11:00:00 4,0 1,9 29 16 54 29 ZW 995,3 30
14.12.2017 10:00:00 4,1 1,7 36 19 - - ZW 995,0 30
14.12.2017 09:00:00 4,3 1,0 25 14 40 21 ZW 994,7 30
14.12.2017 08:00:00 3,9 0,2 25 14 43 23 ZW 995,0 30
14.12.2017 07:00:00 4,4 0,3 29 16 - - WZW 994,9 30
14.12.2017 06:00:00 3,8 -0,2 36 19 68 37 W 994,5 30
14.12.2017 05:00:00 4,0 0,5 36 19 72 39 WZW 992,9 10
14.12.2017 04:00:00 2,9 0,8 47 25 - - W 992,0 8
14.12.2017 03:00:00 3,8 2,3 29 16 54 29 WZW 990,6 10
14.12.2017 02:00:00 3,6 2,0 32 18 54 29 ZW 990,2 6
14.12.2017 01:00:00 4,4 1,3 14 8 - - ZW 990,7 30
14.12.2017 00:00:00 5,0 1,7 22 12 40 21 WZW 991,8 30
13.12.2017 23:00:00 5,4 1,8 29 16 54 29 W 991,5 30
13.12.2017 22:00:00 6,4 3,6 36 19 - - W 990,5 30
13.12.2017 21:00:00 7,7 5,5 41 22 76 41 WZW 989,6 5
13.12.2017 20:00:00 7,5 6,2 25 14 50 27 ZW 989,9 7
13.12.2017 19:00:00 7,3 5,9 34 18 - - ZZW 991,8 5
13.12.2017 18:00:00 6,9 5,6 28 15 40 21 ZZW 994,0 10
13.12.2017 17:00:00 6,4 5,1 24 13 36 19 ZZW 996,0 10
13.12.2017 16:00:00 6,0 4,8 15 8 - - ZZW 997,7 8
13.12.2017 15:00:00 6,0 4,6 18 10 29 16 ZZW 998,8 10
13.12.2017 14:00:00 6,1 4,7 18 10 43 23 ZW 999,7 14
13.12.2017 13:00:00 5,7 4,1 29 16 - - ZZW 1000,6 30
13.12.2017 12:00:00 5,2 3,9 29 16 50 27 ZZW 1001,1 10
13.12.2017 11:00:00 4,6 3,2 31 17 50 27 ZZW 1002,0 4,0
13.12.2017 10:00:00 4,2 3,0 34 18 - - ZZW 1002,7 4,0
13.12.2017 09:00:00 4,1 2,5 36 19 61 33 Z 1003,5 6
13.12.2017 08:00:00 3,9 2,1 31 17 50 27 ZZW 1005,2 10
13.12.2017 07:00:00 3,6 1,3 28 15 - - Z 1006,4 10
13.12.2017 06:00:00 3,1 0,8 29 16 43 23 Z 1007,5 18
13.12.2017 05:00:00 2,5 0,6 25 14 40 21 Z 1008,7 18
13.12.2017 04:00:00 2,1 0,3 22 12 - - ZZW 1010,5 10
13.12.2017 03:00:00 2,0 0,1 22 12 32 18 Z 1011,1 18
13.12.2017 02:00:00 1,9 0,0 18 10 29 16 Z 1011,7 18
13.12.2017 01:00:00 1,3 -0,5 14 8 - - Z 1012,9 10
13.12.2017 00:00:00 0,9 -0,8 16 9 25 14 Z 1013,3 10
12.12.2017 23:00:00 1,4 -0,6 14 8 25 14 ZZW 1013,9 10
12.12.2017 22:00:00 0,7 -0,8 11 6 - - Z 1014,0 10
12.12.2017 21:00:00 0,7 -0,9 11 6 18 10 Z 1014,0 10
12.12.2017 20:00:00 0,4 -0,9 13 7 14 8 Z 1013,7 8
12.12.2017 19:00:00 0,9 -0,6 11 6 - - ZZW 1013,4 13
12.12.2017 18:00:00 0,6 -0,7 11 6 11 6 ZZW 1012,9 9
12.12.2017 17:00:00 1,1 -0,2 11 6 25 14 ZZW 1012,4 10
12.12.2017 16:00:00 1,8 0,0 14 8 - - WZW 1011,6 12
12.12.2017 15:00:00 2,1 0,5 18 10 25 14 WZW 1010,8 8
12.12.2017 14:00:00 2,0 0,7 16 9 25 14 WZW 1010,4 6
12.12.2017 13:00:00 1,5 0,4 14 8 - - WZW 1009,8 6
12.12.2017 12:00:00 0,9 0,0 13 7 22 12 WZW 1009,0 4,0
12.12.2017 11:00:00 1,1 -0,2 11 6 22 12 WZW 1008,1 6
12.12.2017 10:00:00 0,9 0,0 13 7 - - ZW 1007,0 10
12.12.2017 09:00:00 0,6 -0,4 14 8 29 16 ZW 1005,7 6
12.12.2017 08:00:00 1,2 -0,1 18 10 25 14 WZW 1004,4 7
12.12.2017 07:00:00 0,9 -0,2 16 9 - - WZW 1002,8 10
12.12.2017 06:00:00 0,5 -0,3 15 8 25 14 W 1001,5 1,8
12.12.2017 05:00:00 1,2 0,0 18 10 25 14 WZW 999,5 15
12.12.2017 04:00:00 1,0 -0,2 15 8 - - WZW 997,7 10
12.12.2017 03:00:00 1,1 -0,6 18 10 25 14 W 995,9 15
12.12.2017 02:00:00 1,2 -0,7 16 9 29 16 WNW 994,0 10
12.12.2017 01:00:00 1,1 -0,7 18 10 - - WNW 992,0 15
12.12.2017 00:00:00 1,0 -1,1 18 10 40 21 NW 989,6 10
11.12.2017 23:00:00 0,6 -1,3 18 10 29 16 NW 987,4 8
11.12.2017 22:00:00 0,0 -1,7 16 9 - - NNW 984,4 6
11.12.2017 21:00:00 -0,4 -1,7 22 12 43 23 N 982,3 3,0
11.12.2017 20:00:00 -0,3 -1,8 25 14 43 23 N 980,4 2,0
11.12.2017 19:00:00 0,2 -0,8 14 8 - - N 977,8 3,0
11.12.2017 18:00:00 0,5 -0,4 7 4 18 10 N 976,1 2,1
11.12.2017 17:00:00 0,6 -0,3 11 6 18 10 NO 975,2 2,1
11.12.2017 16:00:00 0,8 -0,1 11 6 - - NO 974,6 2,0
11.12.2017 15:00:00 0,9 -0,1 18 10 36 19 O 974,1 6
11.12.2017 14:00:00 0,9 -0,1 22 12 43 23 O 974,5 6
11.12.2017 13:00:00 0,5 -0,6 13 7 - - O 975,5 6
11.12.2017 12:00:00 0,1 -1,1 29 16 47 25 ONO 975,8 6
11.12.2017 11:00:00 -0,1 -1,4 16 9 32 18 NO 978,3 3,2
11.12.2017 10:00:00 -0,1 -1,1 16 9 - - ONO 979,2 0,9
11.12.2017 09:00:00 0,7 -0,5 16 9 36 19 ONO 979,5 3,5
11.12.2017 08:00:00 1,1 -0,3 18 10 36 19 O 979,7 5
11.12.2017 07:00:00 1,9 0,5 18 10 - - O 980,3 10
11.12.2017 06:00:00 1,9 0,5 15 8 25 14 O 981,4 10
11.12.2017 05:00:00 1,3 0,3 5 3 11 6 O 982,7 10
11.12.2017 04:00:00 1,0 -0,1 8 4 - - O 983,7 10
11.12.2017 03:00:00 -0,5 -1,3 5 3 7 4 ZZO 983,9 10
11.12.2017 02:00:00 0,0 -0,5 2 1 14 8 - 983,8 10
11.12.2017 01:00:00 2,1 0,4 11 6 - - ZW 983,9 10
11.12.2017 00:00:00 2,0 0,1 15 8 25 14 ZW 982,9 10
10.12.2017 23:00:00 2,4 0,1 18 10 40 21 W 982,1 10
10.12.2017 22:00:00 2,9 0,2 28 15 - - WZW 981,2 8
10.12.2017 21:00:00 3,1 -0,4 39 21 68 37 W 979,5 10
10.12.2017 20:00:00 5,8 2,3 44 24 86 47 W 976,9 10
10.12.2017 19:00:00 6,5 4,9 35 19 - - WZW 975,2 5
10.12.2017 18:00:00 6,7 4,7 35 19 94 51 WZW 974,5 6
10.12.2017 17:00:00 7,8 4,2 46 25 76 41 ZW 973,7 8
10.12.2017 16:00:00 6,7 4,0 31 17 - - ZW 974,1 8
10.12.2017 15:00:00 6,1 3,8 35 19 58 31 ZW 974,6 10
10.12.2017 14:00:00 4,4 2,4 34 18 47 25 ZW 974,9 10
10.12.2017 13:00:00 1,4 -0,2 34 18 - - Z 975,9 10
10.12.2017 12:00:00 0,1 -1,1 26 14 43 23 ZZO 978,1 8

tt = temperatuur
td = dauwpunt
ff = windsnelheid
fx = windstoten
dd = windrichting
ppp = luchtdruk
vv = zicht

Weerstations in de omgeving